This is the latest recevied weather packets stored in our database for station/object LX0APE-4. If no packets are shown the sender has not sent any weather packets the latest 10 day(s).
| Time | Temp. | Humidity | Pressure | Rain* | Wind** | Luminosity | Snow |
|---|---|---|---|---|---|---|---|
| 1777226833 | 20.56° C | 27% | 5018 hPa | 0 mm | - | - | - |
| 1777226533 | 21.11° C | 26% | 5018.1 hPa | 0 mm | - | - | - |
| 1777226233 | 21.11° C | 26% | 5018 hPa | 0 mm | - | - | - |
| 1777225934 | 21.67° C | 25% | 5018.3 hPa | 0 mm | - | - | - |
| 1777225633 | 22.22° C | 23% | 5018.3 hPa | 0 mm | - | - | - |
| 1777225333 | 23.33° C | 22% | 5018.2 hPa | 0 mm | - | - | - |
| 1777225033 | 24.44° C | 21% | 5018.1 hPa | 0 mm | - | - | - |
| 1777224733 | 25.56° C | 20% | 5018.2 hPa | 0 mm | - | - | - |
| 1777224433 | 25.56° C | 18% | 5018.1 hPa | 0 mm | - | - | - |
| 1777224133 | 25.56° C | 17% | 5018.2 hPa | 0 mm | - | - | - |
| 1777223833 | 27.22° C | 16% | 5018.2 hPa | 0 mm | - | - | - |
| 1777223533 | 27.78° C | 16% | 5018.1 hPa | 0 mm | - | - | - |
| 1777223233 | 28.33° C | 16% | 5018.1 hPa | 0 mm | - | - | - |
| 1777222933 | 28.33° C | 16% | 5018 hPa | 0 mm | - | - | - |
| 1777222633 | 27.78° C | 16% | 5018 hPa | 0 mm | - | - | - |
| 1777222333 | 27.78° C | 16% | 5018.1 hPa | 0 mm | - | - | - |
| 1777222033 | 27.22° C | 17% | 5018.3 hPa | 0 mm | - | - | - |
| 1777221733 | 26.67° C | 16% | 5018.1 hPa | 0 mm | - | - | - |
| 1777221433 | 26.67° C | 15% | 5018.2 hPa | 0 mm | - | - | - |
| 1777221133 | 27.78° C | 14% | 5018.3 hPa | 0 mm | - | - | - |
| 1777220833 | 28.89° C | 14% | 5018.3 hPa | 0 mm | - | - | - |
| 1777220533 | 29.44° C | 14% | 5018.4 hPa | 0 mm | - | - | - |
| 1777220233 | 30° C | 14% | 5018.5 hPa | 0 mm | - | - | - |
| 1777219933 | 31.11° C | 15% | 5018.5 hPa | 0 mm | - | - | - |
| 1777219633 | 31.11° C | 15% | 5018.3 hPa | 0 mm | - | - | - |
* Rain latest hour (hover to see other rain measurements)
** Current wind speed in m/s (hover to see current wind gust speed)